Flag for United Kingdom Weather past 2 weeks in Northampton, England, United Kingdom

Now
82 °F

Passing clouds.


Feels Like: 82 °F
Forecast: 56 / 78 °F
Wind: 10 mph from East

Location: Cranfield

Current Time: Jul 24, 2014 at 5:35:45 PM

Latest Report: Jul 24, 2014 at 5:20 PM


Visibility: N/A

Pressure: 30.01 "Hg

Humidity: 40%

Dew point: 55 °F

Location of NorthamptonLocation

Historic Weather in Northampton — Graph

°F

Northampton temperature yesterday

Maximum temperature yesterday: 81 °F (at 3:50 PM)
Minimum temperature yesterday: 77 °F (at 2:20 PM)
Average temperature yesterday: 79 °F

Past Weeks' High & Low Weather Summary

 TemperatureHumidityPressure
High84 °F (Jul 18, 2:50 PM)100% (Jul 11, 8:20 AM)30.24 "Hg (Jul 11, 8:20 AM)
Low55 °F (Jul 11, 8:20 AM)42% (Jul 24, 3:20 PM)29.71 "Hg (Jul 13, 10:20 AM)
Average71 °F72%30.01 "Hg
* Reported Jul 9 4:20 PM — Jul 24 4:20 PM, Northampton, Weather by CustomWeather, © 2014

Note: Actual official high and low records may vary slightly from our data, if they occured in-between our weather recording intervals... More about our weather records

Advertising

Northampton weather history for previous 24 hours

 ConditionsComfort  
Time TempWeatherWind HumidityBarometerVisibility
4:20 PM
Jul 24
81 °FPassing clouds.12 mph45%30.04 "HgN/A
3:50 PM81 °FPassing clouds.13 mph45%30.04 "HgN/A
3:20 PM82 °FPassing clouds.9 mph42%30.04 "HgN/A
2:50 PM81 °FPassing clouds.10 mph45%30.04 "HgN/A
2:20 PM81 °FPassing clouds.8 mph45%30.04 "HgN/A
1:50 PM81 °FScattered clouds.12 mph51%30.04 "HgN/A
1:20 PM79 °FScattered clouds.12 mph58%30.07 "HgN/A
12:50 PM77 °FScattered clouds.12 mph61%30.07 "HgN/A
12:20 PM77 °FScattered clouds.13 mph65%30.07 "HgN/A
11:50 AM75 °FPassing clouds.10 mph74%30.07 "HgN/A
11:20 AM73 °FPassing clouds.10 mph78%30.09 "Hg4 mi
10:50 AM70 °FPassing clouds.8 mph88%30.09 "Hg4 mi
10:20 AM66 °FPartly sunny.10 mph94%30.09 "Hg3 mi
9:50 AM64 °FFog.10 mph100%30.09 "Hg2 mi
9:20 AM63 °FFog.12 mph100%30.09 "Hg1 mi
8:50 AM63 °FFog.12 mph100%30.09 "Hg1 mi
8:20 AM61 °FFog.10 mph100%30.09 "Hg1 mi
5:50 PM
Jul 23
79 °FPassing clouds.16 mph65%30.07 "HgN/A
5:20 PM79 °FPassing clouds.15 mph65%30.07 "HgN/A
Weather by CustomWeather, © 2014

See weather overviewHow to use our weather pages